FW9133 Weather Reports


Display with metric or nautical units.
time (UTC)temp
F
wind
direction
speed
MPH
gust
MPH
rain 1hr
in
rain 24hr
in
rain mn
in
humidity
%
barometer
mb
20260510033602 63 0 1.0 2.0 0.00 0.00 0.00 63 1009.7
20260510033112 63 0 0.0 2.0 0.00 0.00 0.00 63 1009.7
20260510032604 63 0 0.0 2.0 0.00 0.00 0.00 63 1009.7
20260510032057 63 288 0.0 2.0 0.00 0.00 0.00 63 1009.7
20260510031557 63 0 0.0 2.0 0.00 0.00 0.00 63 1009.7
20260510031100 63 288 0.0 2.0 0.00 0.00 0.00 63 1009.7
20260510030600 63 0 0.0 2.0 0.00 0.00 0.00 62 1009.8
20260510030112 63 288 0.0 3.0 0.00 0.00 0.00 62 1009.8
20260510025600 63 338 0.0 3.0 0.00 0.00 0.00 62 1009.8
20260510025059 63 283 1.0 2.0 0.00 0.00 0.00 63 1009.8
20260510024559 63 335 1.0 2.0 0.00 0.00 0.00 63 1009.7
20260510024104 63 19 1.0 3.0 0.00 0.00 0.00 63 1009.7
20260510023600 63 0 1.0 3.0 0.00 0.00 0.00 62 1009.7
20260510023100 63 346 1.0 3.0 0.00 0.00 0.00 62 1009.7
20260510022600 63 351 1.0 2.0 0.00 0.00 0.00 61 1009.6
20260510022100 63 0 0.0 1.0 0.00 0.00 0.00 61 1009.6
20260510021559 64 0 0.0 1.0 0.00 0.00 0.00 60 1009.5
20260510021059 64 0 0.0 1.0 0.00 0.00 0.00 60 1009.5
20260510020600 64 0 0.0 1.0 0.00 0.00 0.00 60 1009.4
20260510020058 64 0 0.0 1.0 0.00 0.00 0.00 60 1009.4
20260510015557 64 0 0.0 2.0 0.00 0.00 0.00 60 1009.3
20260510015056 64 0 0.0 2.0 0.00 0.00 0.00 60 1009.2
20260510014605 64 350 0.0 2.0 0.00 0.00 0.00 60 1009.2
20260510014101 64 0 0.0 1.0 0.00 0.00 0.00 60 1009.2
20260510013601 64 0 0.0 0.0 0.00 0.00 0.00 60 1009.2
20260510013058 64 0 0.0 0.0 0.00 0.00 0.00 59 1009.1
20260510012603 64 0 0.0 0.0 0.00 0.00 0.00 59 1009.0
20260510012100 64 0 0.0 0.0 0.00 0.00 0.00 59 1008.9
20260510011558 64 0 0.0 0.0 0.00 0.00 0.00 59 1008.9
20260510011101 64 0 0.0 0.0 0.00 0.00 0.00 59 1008.7
20260510010602 65 0 0.0 0.0 0.00 0.00 0.00 58 1008.6
20260510010100 65 0 0.0 0.0 0.00 0.00 0.00 58 1008.6
20260510005600 65 0 0.0 0.0 0.00 0.00 0.00 58 1008.5
20260510005100 65 0 0.0 0.0 0.00 0.00 0.00 58 1008.5
20260510004600 65 0 0.0 0.0 0.00 0.00 0.00 58 1008.4
20260510004100 65 0 0.0 0.0 0.00 0.00 0.00 58 1008.3
20260510003600 65 0 0.0 0.0 0.00 0.00 0.00 58 1008.4
20260510003104 65 0 0.0 0.0 0.00 0.00 0.00 59 1008.3
20260510002556 65 0 0.0 0.0 0.00 0.00 0.00 59 1008.3
20260510002057 65 0 0.0 0.0 0.00 0.00 0.00 60 1008.3
20260510001600 65 0 0.0 0.0 0.00 0.00 0.00 60 1008.3
20260510001057 66 0 0.0 1.0 0.00 0.00 0.00 59 1008.3
20260510000600 66 0 0.0 1.0 0.00 0.00 0.00 59 1008.3
20260509235600 66 0 0.0 1.0 0.00 0.00 0.00 61 1008.2
20260509235100 66 0 0.0 1.0 0.00 0.00 0.00 59 1008.3
20260509234601 66 0 0.0 2.0 0.00 0.00 0.00 59 1008.2
20260509234100 67 0 0.0 2.0 0.00 0.00 0.00 59 1008.2
20260509233559 67 142 1.0 2.0 0.00 0.00 0.00 60 1008.1
20260509233104 67 0 0.0 2.0 0.00 0.00 0.00 60 1008.1
20260509232600 67 184 0.0 1.0 0.00 0.00 0.00 57 1008.0
20260509232101 67 0 0.0 1.0 0.00 0.00 0.00 56 1007.9
20260509231601 68 0 0.0 2.0 0.00 0.00 0.00 56 1008.0
20260509231100 68 0 0.0 2.0 0.00 0.00 0.00 55 1008.0
20260509230604 68 0 0.0 2.0 0.00 0.00 0.00 55 1008.0
20260509225600 68 0 0.0 1.0 0.00 0.00 0.00 56 1008.0
20260509225056 68 0 0.0 2.0 0.00 0.00 0.00 61 1007.9
20260509224559 68 0 0.0 3.0 0.00 0.00 0.00 57 1008.0
20260509224102 68 0 0.0 3.0 0.00 0.00 0.00 55 1008.0
20260509223601 68 248 0.0 3.0 0.00 0.00 0.00 59 1008.0
20260509223102 68 0 0.0 4.0 0.00 0.00 0.00 60 1008.0
20260509222602 68 234 1.0 4.0 0.00 0.00 0.00 54 1008.0
20260509222101 68 0 0.0 3.0 0.00 0.00 0.00 59 1008.0
20260509221559 68 0 0.0 3.0 0.00 0.00 0.00 56 1008.0
20260509221101 69 263 0.0 3.0 0.00 0.00 0.00 54 1007.9
20260509220600 69 290 0.0 4.0 0.00 0.00 0.00 56 1008.0
20260509215600 70 215 0.0 8.0 0.00 0.00 0.00 50 1008.0
20260509215100 69 0 1.0 8.0 0.00 0.00 0.00 52 1008.0
20260509214558 70 229 1.0 8.0 0.00 0.00 0.00 53 1008.1
20260509214100 68 0 1.0 8.0 0.00 0.00 0.00 55 1008.1
20260509213600 68 249 1.0 7.0 0.00 0.00 0.00 53 1007.9
20260509213102 69 253 1.0 6.0 0.00 0.00 0.00 53 1008.0
20260509212557 70 257 1.0 8.0 0.00 0.00 0.00 51 1008.0
20260509212100 71 322 2.0 8.0 0.00 0.00 0.00 49 1007.8
20260509211606 71 49 2.0 6.0 0.00 0.00 0.00 53 1007.8
20260509211100 70 178 0.0 4.0 0.00 0.00 0.00 55 1007.7
20260509210602 70 71 1.0 7.0 0.00 0.00 0.00 53 1007.7
20260509205603 69 30 1.0 8.0 0.00 0.00 0.00 54 1007.8
20260509205100 69 0 1.0 8.0 0.00 0.00 0.00 55 1007.7
20260509204559 68 281 1.0 5.0 0.00 0.00 0.00 58 1007.7
20260509204100 68 106 1.0 5.0 0.00 0.00 0.00 55 1007.6
20260509203559 70 0 2.0 5.0 0.00 0.00 0.00 53 1007.7
20260509203111 72 217 1.0 5.0 0.00 0.00 0.00 56 1007.7
20260509202600 71 311 1.0 6.0 0.00 0.00 0.00 52 1007.7
20260509202103 70 17 2.0 6.0 0.00 0.00 0.00 53 1007.6
20260509201605 70 212 2.0 8.0 0.00 0.00 0.00 55 1007.6
20260509201059 70 175 1.0 8.0 0.00 0.00 0.00 55 1007.6
20260509200559 69 140 2.0 8.0 0.00 0.00 0.00 55 1007.6
20260509200111 69 145 2.0 8.0 0.00 0.00 0.00 57 1007.8
20260509195557 69 32 3.0 11.0 0.00 0.00 0.00 56 1007.8
20260509195100 69 165 4.0 11.0 0.00 0.00 0.00 56 1007.8
20260509194601 69 136 3.0 9.0 0.00 0.00 0.00 61 1007.9
20260509194056 68 139 4.0 9.0 0.00 0.00 0.00 60 1007.9
20260509193600 68 183 2.0 8.0 0.00 0.00 0.00 59 1008.1
20260509193116 67 126 2.0 7.0 0.00 0.00 0.00 64 1008.1
20260509192605 66 151 3.0 9.0 0.00 0.00 0.00 63 1008.3
20260509192100 66 215 3.0 11.0 0.00 0.00 0.00 62 1008.3
20260509191600 66 201 3.0 11.0 0.00 0.00 0.00 61 1008.4
20260509191103 66 111 2.0 8.0 0.00 0.00 0.00 63 1008.6
20260509190601 66 113 4.0 8.0 0.00 0.00 0.00 60 1008.5
20260509190106 68 27 3.0 8.0 0.00 0.00 0.00 61 1008.5
20260509185557 67 120 3.0 8.0 0.00 0.00 0.00 59 1008.7
20260509185100 67 153 1.0 6.0 0.00 0.00 0.00 65 1008.8
20260509184609 66 183 1.0 8.0 0.00 0.00 0.00 64 1008.9
20260509184100 65 153 2.0 9.0 0.00 0.00 0.00 64 1009.0
20260509183600 65 128 3.0 9.0 0.00 0.00 0.00 64 1008.9
20260509183058 65 153 2.0 5.0 0.00 0.00 0.00 63 1008.9
20260509182601 65 153 2.0 5.0 0.00 0.00 0.00 62 1008.9
20260509182100 65 142 1.0 4.0 0.00 0.00 0.00 64 1008.8
20260509181600 64 0 1.0 3.0 0.00 0.00 0.00 65 1008.7
20260509181100 65 119 1.0 9.0 0.00 0.00 0.00 66 1009.0
20260509180600 64 0 1.0 9.0 0.00 0.00 0.00 66 1009.1
20260509180059 64 169 2.0 7.0 0.00 0.00 0.00 65 1009.3
20260509175601 64 352 0.0 4.0 0.00 0.00 0.00 63 1009.4
20260509175100 64 149 2.0 4.0 0.00 0.00 0.00 62 1009.4
20260509174603 64 217 1.0 5.0 0.00 0.00 0.00 63 1009.6
20260509174100 64 141 1.0 5.0 0.00 0.00 0.00 63 1009.8
20260509173600 64 199 1.0 7.0 0.00 0.00 0.00 62 1009.9
20260509173109 64 148 1.0 7.0 0.00 0.00 0.00 61 1009.9
20260509172600 65 250 4.0 7.0 0.00 0.00 0.00 60 1009.9
20260509172057 66 258 0.0 6.0 0.00 0.00 0.00 61 1009.9
20260509171623 65 134 1.0 8.0 0.00 0.00 0.00 63 1009.9
20260509171100 65 165 2.0 8.0 0.00 0.00 0.00 60 1009.8
20260509170600 65 135 2.0 7.0 0.00 0.00 0.00 59 1009.8
20260509170101 65 0 1.0 7.0 0.00 0.00 0.00 64 1009.9
20260509165600 64 64 1.0 7.0 0.00 0.00 0.00 62 1009.9
20260509165100 63 159 2.0 7.0 0.00 0.00 0.00 63 1009.9
20260509164600 64 175 3.0 7.0 0.00 0.00 0.00 62 1009.9
20260509164057 64 80 1.0 5.0 0.00 0.00 0.00 61 1009.9
20260509163557 63 131 2.0 5.0 0.00 0.00 0.00 64 1010.0
20260509163108 63 111 2.0 8.0 0.00 0.00 0.00 67 1010.1
20260509162557 63 82 2.0 9.0 0.00 0.00 0.00 64 1010.1
20260509162057 64 82 2.0 9.0 0.00 0.00 0.00 63 1010.1
20260509161559 64 115 2.0 9.0 0.00 0.00 0.00 62 1010.1
20260509161100 64 145 0.0 7.0 0.00 0.00 0.00 60 1010.1
20260509160600 64 95 2.0 7.0 0.00 0.00 0.00 63 1010.1
20260509160100 62 0 3.0 8.0 0.00 0.00 0.00 61 1010.1
20260509155604 62 100 2.0 9.0 0.00 0.00 0.00 63 1010.2
20260509155100 63 98 3.0 9.0 0.00 0.00 0.00 61 1010.2
20260509154605 63 152 2.0 9.0 0.00 0.00 0.00 65 1010.1
20260509154059 61 169 3.0 6.0 0.00 0.00 0.00 61 1010.1
20260509153601 62 107 2.0 7.0 0.00 0.00 0.00 62 1010.2
20260509153059 62 147 2.0 7.0 0.00 0.00 0.00 64 1010.2
20260509152600 62 149 2.0 7.0 0.00 0.00 0.00 62 1010.2
20260509152059 62 144 1.0 7.0 0.00 0.00 0.00 62 1010.2
20260509151604 61 86 1.0 7.0 0.00 0.00 0.00 62 1010.3
20260509151059 61 83 3.0 7.0 0.00 0.00 0.00 65 1010.2
20260509150559 61 168 2.0 6.0 0.00 0.00 0.00 60 1010.3
20260509150125 62 150 1.0 7.0 0.00 0.00 0.00 62 1010.2
20260509145600 61 119 3.0 7.0 0.00 0.00 0.00 63 1010.2
20260509145101 61 169 2.0 7.0 0.00 0.00 0.00 61 1010.3
20260509144708 61 205 2.0 7.0 0.00 0.00 0.00 63 1010.3
20260509144100 61 70 2.0 6.0 0.00 0.00 0.00 63 1010.3
20260509143559 60 28 1.0 6.0 0.00 0.00 0.00 62 1010.3
20260509143059 60 163 1.0 6.0 0.00 0.00 0.00 65 1010.4
20260509142604 58 274 1.0 6.0 0.00 0.00 0.00 64 1010.5
20260509142100 58 152 2.0 9.0 0.00 0.00 0.00 63 1010.5
20260509141558 58 0 2.0 9.0 0.00 0.00 0.00 66 1010.6
20260509141100 58 153 2.0 7.0 0.00 0.00 0.00 66 1010.7
20260509140559 58 190 2.0 7.0 0.00 0.00 0.00 67 1010.8
20260509140101 58 355 2.0 6.0 0.00 0.00 0.00 67 1010.7
20260509135600 57 205 2.0 9.0 0.00 0.00 0.00 68 1010.7
20260509135101 55 158 3.0 9.0 0.00 0.00 0.00 67 1010.7
20260509134558 55 98 2.0 7.0 0.00 0.00 0.00 68 1010.6
20260509134059 54 186 3.0 6.0 0.00 0.00 0.00 67 1010.6
20260509133604 54 148 0.0 5.0 0.00 0.00 0.00 72 1010.5
20260509133059 54 136 0.0 5.0 0.00 0.00 0.00 71 1010.4
20260509132557 53 0 1.0 5.0 0.00 0.00 0.00 68 1010.5
20260509132059 53 0 1.0 4.0 0.00 0.00 0.00 69 1010.5
20260509131603 53 208 1.0 4.0 0.00 0.00 0.00 69 1010.6
20260509131100 53 271 1.0 3.0 0.00 0.00 0.00 68 1010.8
20260509130600 53 270 0.0 3.0 0.00 0.00 0.00 69 1010.7
20260509130106 53 355 0.0 3.0 0.00 0.00 0.00 68 1010.7
20260509125600 53 0 0.0 8.0 0.00 0.00 0.00 72 1010.6
20260509125101 52 0 1.0 8.0 0.00 0.00 0.00 70 1010.6
20260509124612 52 163 2.0 7.0 0.00 0.00 0.00 71 1010.4
20260509124100 52 119 2.0 7.0 0.00 0.00 0.00 70 1010.4
20260509123600 52 205 1.0 6.0 0.00 0.00 0.00 69 1010.5
20260509123104 52 245 2.0 6.0 0.00 0.00 0.00 70 1010.5
20260509122600 52 40 2.0 8.0 0.00 0.00 0.00 71 1010.5
20260509122059 52 148 1.0 8.0 0.00 0.00 0.00 70 1010.5
20260509121557 52 211 1.0 6.0 0.00 0.00 0.00 68 1010.4
20260509121100 52 168 1.0 6.0 0.00 0.00 0.00 69 1010.5
20260509120601 52 161 1.0 6.0 0.00 0.00 0.00 68 1010.5
20260509120107 52 157 1.0 6.0 0.00 0.00 0.00 67 1010.5
20260509115600 52 186 1.0 6.0 0.00 0.00 0.00 68 1010.4
20260509115100 52 198 2.0 6.0 0.00 0.00 0.00 67 1010.4
20260509114606 52 0 1.0 5.0 0.00 0.00 0.00 69 1010.4
20260509114100 52 0 2.0 5.0 0.00 0.00 0.00 68 1010.3
20260509113600 52 196 1.0 5.0 0.00 0.00 0.00 66 1010.4
20260509113059 52 222 2.0 5.0 0.00 0.00 0.00 65 1010.4
20260509112602 53 200 1.0 5.0 0.00 0.00 0.00 65 1010.3
20260509112103 53 158 1.0 5.0 0.00 0.00 0.00 65 1010.2
20260509111558 53 183 1.0 7.0 0.00 0.00 0.00 62 1010.2
20260509111100 55 135 2.0 9.0 0.00 0.00 0.00 59 1010.1
20260509110601 55 115 2.0 10.0 0.00 0.00 0.00 57 1009.9
20260509110059 56 250 3.0 11.0 0.00 0.00 0.00 56 1009.9
20260509105559 56 257 4.0 12.0 0.00 0.00 0.00 55 1009.8
20260509105057 56 229 3.0 17.0 0.00 0.00 0.00 56 1009.8
20260509104600 56 285 3.0 17.0 0.00 0.00 0.00 56 1009.8
20260509104059 55 207 2.0 8.0 0.00 0.00 0.00 56 1009.8
20260509103556 55 259 3.0 12.0 0.00 0.00 0.00 57 1009.9
20260509103057 55 214 3.0 13.0 0.00 0.00 0.00 58 1009.9
20260509102600 54 290 4.0 13.0 0.00 0.00 0.00 58 1009.9
20260509102102 54 284 3.0 10.0 0.00 0.00 0.00 58 1009.8
20260509101559 54 246 3.0 10.0 0.00 0.00 0.00 59 1009.7
20260509101102 54 331 2.0 7.0 0.00 0.00 0.00 59 1009.8
20260509100600 54 260 2.0 8.0 0.00 0.00 0.00 60 1009.8
20260509100105 53 20 2.0 8.0 0.00 0.00 0.00 61 1009.8
20260509095601 53 215 3.0 7.0 0.00 0.00 0.00 61 1009.9
20260509095101 53 256 1.0 7.0 0.00 0.00 0.00 61 1009.9
20260509094558 53 308 1.0 8.0 0.00 0.00 0.00 62 1010.0
20260509094100 53 254 3.0 8.0 0.00 0.00 0.00 62 1010.0
20260509093600 53 224 3.0 8.0 0.00 0.00 0.00 62 1009.9
20260509093058 53 244 2.0 6.0 0.00 0.00 0.00 62 1010.0
20260509092611 52 323 1.0 6.0 0.00 0.00 0.00 63 1010.1
20260509092059 52 0 1.0 4.0 0.00 0.00 0.00 63 1010.2
20260509091600 53 205 1.0 8.0 0.00 0.00 0.00 63 1010.3
20260509091102 53 199 1.0 8.0 0.00 0.00 0.00 61 1010.3
20260509090600 53 134 1.0 5.0 0.00 0.00 0.00 61 1010.4
20260509090108 53 162 2.0 9.0 0.00 0.00 0.00 61 1010.4
20260509085600 53 262 3.0 9.0 0.00 0.00 0.00 61 1010.4
20260509085101 53 285 1.0 8.0 0.00 0.00 0.00 61 1010.5
20260509084603 53 177 2.0 8.0 0.00 0.00 0.00 61 1010.5
20260509084100 53 263 1.0 7.0 0.00 0.00 0.00 61 1010.4
20260509083600 53 246 2.0 7.0 0.00 0.00 0.00 62 1010.5
20260509083057 53 277 1.0 7.0 0.00 0.00 0.00 60 1010.5
20260509082556 53 201 1.0 6.0 0.00 0.00 0.00 62 1010.7
20260509082100 53 159 2.0 6.0 0.00 0.00 0.00 60 1010.6
20260509081558 53 0 1.0 6.0 0.00 0.00 0.00 61 1010.6
20260509081059 53 0 2.0 7.0 0.00 0.00 0.00 61 1010.6
20260509080604 53 200 3.0 8.0 0.00 0.00 0.00 60 1010.7
20260509075600 55 0 3.0 10.0 0.00 0.00 0.00 57 1010.7
20260509075100 55 197 2.0 9.0 0.00 0.00 0.00 54 1010.7
20260509074601 55 188 2.0 11.0 0.00 0.00 0.00 54 1010.7
20260509074100 56 234 3.0 13.0 0.00 0.00 0.00 54 1010.7
20260509073601 56 239 4.0 13.0 0.00 0.00 0.00 54 1010.6
20260509073100 55 264 3.0 11.0 0.00 0.00 0.00 54 1010.5
20260509072600 55 240 4.0 12.0 0.00 0.00 0.00 54 1010.6
20260509072057 55 220 3.0 12.0 0.00 0.00 0.00 55 1010.6
20260509071613 54 202 2.0 9.0 0.00 0.00 0.00 56 1010.6
20260509071102 55 191 3.0 9.0 0.00 0.00 0.00 56 1010.7
20260509070600 55 207 3.0 11.0 0.00 0.00 0.00 57 1010.5
20260509070101 55 344 2.0 11.0 0.00 0.00 0.00 56 1010.6
20260509065600 55 169 3.0 10.0 0.00 0.00 0.00 55 1010.7
20260509065104 55 212 3.0 7.0 0.00 0.00 0.00 55 1010.7
20260509064605 55 159 2.0 8.0 0.00 0.00 0.00 55 1010.7
20260509064100 55 213 3.0 10.0 0.00 0.00 0.00 55 1010.7
20260509063601 55 145 3.0 10.0 0.00 0.00 0.00 55 1010.7
20260509063100 55 277 2.0 8.0 0.00 0.00 0.00 56 1010.9
20260509062600 55 147 2.0 9.0 0.00 0.00 0.00 55 1010.8
20260509062101 55 0 2.0 9.0 0.00 0.00 0.00 55 1010.8
20260509061602 55 125 2.0 7.0 0.00 0.00 0.00 55 1010.8
20260509061100 55 165 1.0 8.0 0.00 0.00 0.00 55 1011.1
20260509060600 55 191 2.0 8.0 0.00 0.00 0.00 56 1011.1
20260509060107 55 171 2.0 9.0 0.00 0.00 0.00 55 1011.0
20260509055600 55 227 2.0 9.0 0.00 0.00 0.00 55 1011.0
20260509055103 55 0 2.0 7.0 0.00 0.00 0.00 56 1011.0
20260509054614 55 169 3.0 7.0 0.00 0.00 0.00 55 1011.1
20260509054059 55 153 1.0 8.0 0.00 0.00 0.00 55 1011.1
20260509053557 55 229 2.0 8.0 0.00 0.00 0.00 54 1011.1
20260509053106 55 255 2.0 8.0 0.00 0.00 0.00 55 1011.1
20260509052600 55 192 3.0 8.0 0.00 0.00 0.00 55 1011.1
20260509052100 55 224 3.0 8.0 0.00 0.00 0.00 55 1011.2
20260509051559 55 252 2.0 8.0 0.00 0.00 0.00 56 1011.1
20260509051101 55 218 2.0 9.0 0.00 0.00 0.00 56 1011.2
20260509050600 55 202 3.0 9.0 0.00 0.00 0.00 56 1011.3
20260509050100 55 278 3.0 10.0 0.00 0.00 0.00 57 1011.3
20260509045600 55 244 2.0 10.0 0.00 0.00 0.00 55 1011.3
20260509045100 55 237 2.0 9.0 0.00 0.00 0.00 55 1011.3
20260509044600 55 247 2.0 8.0 0.00 0.00 0.00 55 1011.2
20260509044100 55 228 2.0 8.0 0.00 0.00 0.00 54 1011.3
20260509043600 55 307 3.0 8.0 0.00 0.00 0.00 55 1011.3
20260509043110 55 198 3.0 9.0 0.00 0.00 0.00 54 1011.3
20260509042601 56 262 3.0 10.0 0.00 0.00 0.00 54 1011.3
20260509042100 56 252 3.0 10.0 0.00 0.00 0.00 54 1011.4
20260509041600 56 142 3.0 11.0 0.00 0.00 0.00 54 1011.4
20260509041100 56 234 3.0 11.0 0.00 0.00 0.00 54 1011.4
20260509040559 56 155 3.0 10.0 0.00 0.00 0.00 53 1011.5
20260509040058 56 215 2.0 11.0 0.00 0.00 0.00 54 1011.5
20260509035556 56 243 2.0 11.0 0.00 0.00 0.00 53 1011.5
20260509035057 56 221 3.0 10.0 0.00 0.00 0.00 53 1011.5
20260509034605 56 187 2.0 7.0 0.00 0.00 0.00 53 1011.6
20260509034056 57 167 3.0 7.0 0.00 0.00 0.00 53 1011.6